Phillips, WI

6:06 AM CDT on April 28, 2017 (GMT -0500)
Price County

Weather History for KPBH - January, 2014

Change the Weather History Date:

Saturday, January 25, 2014

  Actual Average Record
Temperature  
Mean Temperature 6 °F -  
Max Temperature 16 °F 21 °F 41 °F (2002)
Min Temperature -4 °F 3 °F -14 °F (1997)
Degree Days  
Heating Degree Days 59    
Moisture  
Dew Point -8 °F    
Average Humidity 64    
Maximum Humidity 85    
Minimum Humidity 49    
Precipitation  
Precipitation 0.00 in - - ()
Sea Level Pressure  
Sea Level Pressure 29.56 in    
Wind  
Wind Speed 11 mph (NW)    
Max Wind Speed 17 mph    
Max Gust Speed 31 mph    
Visibility 8 miles    
Events Snow    
Averages and records for this station are not official NWS values.
T = Trace of Precipitation, MM = Missing Value Source: NWS Daily Summary

Daily Weather History Graph

Daily Weather History Graph

Search for Another Location

Airport or City:

Trip Planner

Search our weather history database for the weather conditions in past years. The results will help you decide how hot, cold, wet, or windy it might be!

Date:

Astronomy

Jan. 25, 2014 Rise Set
Actual Time 7:30 AM CST 4:57 PM CST
Civil Twilight 6:58 AM CST 5:30 PM CST
Nautical Twilight 6:22 AM CST 6:06 PM CST
Astronomical Twilight 5:47 AM CST 6:41 PM CST
Moon 2:01 AM CST (1/25) 11:58 AM CST (1/25)
Length of Visible Light 10h 31m
Length of Day
9h 26m
Waning Crescent, 34% of the Moon is Illuminated
Jan 25
Waning Crescent
Jan 30
New
Feb 6
First Quarter
Feb 14
Full
Feb 22
Last Quarter

Hourly Weather History & Observations

Time (CST) Temp. Windchill Dew Point Humidity Pressure Visibility Wind Dir Wind Speed Gust Speed Precip Events Conditions
12:15 AM 16.5 °F 0.8 °F 6.8 °F 66% 29.35 in 7.0 mi NW 17.3 mph 31.1 mph N/A   Scattered Clouds
12:35 AM 16.0 °F 2.9 °F 5.7 °F 64% 29.35 in 10.0 mi NW 11.5 mph 23.0 mph N/A   Overcast
12:55 AM 15.6 °F 1.8 °F 5.5 °F 64% 29.36 in 10.0 mi NW 12.7 mph 20.7 mph N/A   Overcast
1:15 AM 14.9 °F 1.6 °F 4.8 °F 64% 29.36 in 10.0 mi NW 11.5 mph 24.2 mph N/A   Overcast
1:35 AM 14.4 °F 1.6 °F 7.2 °F 73% 29.37 in 5.0 mi NW 10.4 mph 18.4 mph N/A Snow Light Snow
1:55 AM 13.6 °F 0.0 °F 8.6 °F 80% 29.37 in 10.0 mi WNW 11.5 mph 16.1 mph N/A   Overcast
2:15 AM 12.4 °F -4.6 °F 6.6 °F 78% 29.38 in 3.0 mi NNW 17.3 mph 24.2 mph N/A Snow Light Snow
2:35 AM 10.2 °F -3.5 °F 5.4 °F 81% 29.40 in 1.2 mi NNW 10.4 mph 21.9 mph N/A Snow Light Snow
2:55 AM 9.9 °F -2.2 °F 5.4 °F 82% 29.41 in 2.0 mi NNW 8.1 mph 16.1 mph N/A Snow Light Snow
3:15 AM 9.5 °F -3.5 °F 5.0 °F 82% 29.41 in 3.0 mi NW 9.2 mph 17.3 mph N/A Snow Light Snow
3:35 AM 9.5 °F -6.6 °F 3.0 °F 75% 29.41 in 3.0 mi NW 13.8 mph 23.0 mph N/A Snow Light Snow
3:55 AM 8.6 °F -5.5 °F 3.4 °F 79% 29.43 in 4.0 mi WNW 10.4 mph - N/A Snow Light Snow
4:15 AM 7.3 °F -7.1 °F 3.4 °F 84% 29.44 in 1.0 mi North 10.4 mph 16.1 mph N/A Snow Light Snow
4:35 AM 5.0 °F -9.1 °F 0.9 °F 83% 29.46 in 0.8 mi North 9.2 mph 23.0 mph N/A Snow Light Snow
4:55 AM 4.8 °F -5.8 °F 1.2 °F 85% 29.47 in 0.5 mi NNW 5.8 mph - N/A Snow Snow
5:15 AM 4.5 °F -14.9 °F -2.0 °F 75% 29.49 in 5.0 mi NW 17.3 mph 28.8 mph N/A   Haze
5:35 AM 1.9 °F -16.9 °F -8.5 °F 62% 29.50 in 3.0 mi NNW 15.0 mph 28.8 mph N/A   Haze
5:55 AM 1.2 °F -15.6 °F -9.4 °F 61% 29.51 in 10.0 mi NNW 11.5 mph - N/A   Clear
6:15 AM 0.5 °F -14.6 °F -9.4 °F 63% 29.52 in 10.0 mi NW 9.2 mph - N/A   Scattered Clouds
6:35 AM 0.1 °F -15.1 °F -8.9 °F 66% 29.52 in 10.0 mi NW 9.2 mph - N/A   Mostly Cloudy
6:55 AM 0.3 °F -11.2 °F -6.5 °F 73% 29.53 in 5.0 mi WNW 5.8 mph - N/A   Haze
7:15 AM -0.0 °F -18.0 °F -7.2 °F 72% 29.55 in 7.0 mi NW 12.7 mph 23.0 mph N/A   Overcast
7:35 AM -0.6 °F -20.8 °F -8.0 °F 71% 29.56 in 10.0 mi NW 16.1 mph 23.0 mph N/A   Overcast
7:55 AM -1.3 °F -19.6 °F -8.5 °F 72% 29.56 in 5.0 mi NW 12.7 mph 20.7 mph N/A   Haze
8:15 AM -2.2 °F -20.7 °F -9.4 °F 71% 29.57 in 7.0 mi NW 12.7 mph 23.0 mph N/A   Overcast
8:35 AM -2.6 °F -20.3 °F -9.8 °F 71% 29.58 in 7.0 mi NW 11.5 mph 21.9 mph N/A   Overcast
8:55 AM -2.7 °F -20.5 °F -9.9 °F 71% 29.58 in 5.0 mi NW 11.5 mph 20.7 mph N/A   Haze
9:15 AM -2.4 °F -19.2 °F -9.4 °F 72% 29.59 in 4.0 mi NW 10.4 mph 18.4 mph N/A   Haze
9:35 AM -2.4 °F -20.1 °F -9.6 °F 71% 29.59 in 3.0 mi NW 11.5 mph 18.4 mph N/A   Haze
9:55 AM -2.2 °F -18.9 °F -9.9 °F 70% 29.60 in 3.0 mi NW 10.4 mph 20.7 mph N/A   Haze
10:15 AM -1.7 °F -20.0 °F -10.3 °F 67% 29.61 in 5.0 mi NW 12.7 mph 20.7 mph N/A   Haze
10:35 AM -1.3 °F -18.7 °F -10.3 °F 66% 29.62 in 5.0 mi WNW 11.5 mph 20.7 mph N/A   Haze
10:55 AM -0.6 °F -21.4 °F -10.3 °F 64% 29.63 in 3.0 mi NW 17.3 mph 24.2 mph N/A   Haze
11:15 AM -0.6 °F -18.6 °F -10.7 °F 62% 29.64 in 7.0 mi NW 12.7 mph 21.9 mph N/A   Overcast
11:35 AM -0.2 °F -18.2 °F -10.8 °F 61% 29.63 in 7.0 mi WNW 12.7 mph 19.6 mph N/A   Overcast
11:55 AM 0.5 °F -18.0 °F -10.8 °F 59% 29.63 in 10.0 mi NW 13.8 mph 19.6 mph N/A   Overcast
12:15 PM 0.9 °F -16.8 °F -10.5 °F 59% 29.63 in 10.0 mi WNW 12.7 mph 21.9 mph N/A   Overcast
12:35 PM 1.6 °F -11.0 °F -10.3 °F 58% 29.62 in 10.0 mi WNW 6.9 mph 21.9 mph N/A   Overcast
12:55 PM 1.0 °F -14.9 °F -11.0 °F 57% 29.62 in 10.0 mi NW 10.4 mph 17.3 mph N/A   Mostly Cloudy
1:15 PM 1.2 °F -15.6 °F -11.4 °F 56% 29.63 in 10.0 mi WNW 11.5 mph 19.6 mph N/A   Mostly Cloudy
1:35 PM 1.6 °F -15.9 °F -11.2 °F 55% 29.63 in 10.0 mi NW 12.7 mph 21.9 mph N/A   Mostly Cloudy
1:55 PM 2.1 °F -16.0 °F -11.0 °F 54% 29.63 in 10.0 mi WNW 13.8 mph 18.4 mph N/A   Mostly Cloudy
2:15 PM 1.9 °F -15.5 °F -10.8 °F 55% 29.63 in 7.0 mi NW 12.7 mph 20.7 mph N/A   Mostly Cloudy
2:35 PM 2.8 °F -11.7 °F -11.2 °F 52% 29.63 in 10.0 mi WNW 9.2 mph - N/A   Mostly Cloudy
2:55 PM 2.5 °F -14.0 °F -11.6 °F 52% 29.64 in 10.0 mi NW 11.5 mph 21.9 mph N/A   Mostly Cloudy
3:15 PM 2.8 °F -16.4 °F -11.9 °F 50% 29.63 in 10.0 mi WNW 16.1 mph 24.2 mph N/A   Scattered Clouds
3:35 PM 2.8 °F -12.7 °F -11.9 °F 50% 29.64 in 10.0 mi WNW 10.4 mph 19.6 mph N/A   Clear
3:55 PM 2.7 °F -12.9 °F -12.5 °F 49% 29.64 in 10.0 mi NW 10.4 mph 18.4 mph N/A   Clear
4:15 PM 2.3 °F -13.4 °F -12.3 °F 51% 29.64 in 10.0 mi West 10.4 mph 16.1 mph N/A   Clear
4:35 PM 2.1 °F -13.6 °F -13.0 °F 49% 29.65 in 10.0 mi West 10.4 mph - N/A   Clear
4:55 PM 1.4 °F -11.3 °F -13.0 °F 51% 29.65 in 10.0 mi West 6.9 mph - N/A   Clear
5:15 PM 0.3 °F -11.2 °F -13.4 °F 53% 29.65 in 10.0 mi West 5.8 mph - N/A   Clear
5:35 PM 0.1 °F -9.7 °F -13.2 °F 54% 29.65 in 10.0 mi West 4.6 mph - N/A   Clear
5:55 PM -0.2 °F -10.1 °F -13.7 °F 53% 29.65 in 10.0 mi West 4.6 mph - N/A   Clear
6:15 PM -0.9 °F - -13.5 °F 55% 29.65 in 10.0 mi Calm Calm - N/A   Clear
6:35 PM -1.8 °F - -13.9 °F 57% 29.65 in 10.0 mi Calm Calm - N/A   Clear
6:55 PM -3.1 °F - -13.9 °F 60% 29.65 in 10.0 mi Calm Calm - N/A   Clear
7:15 PM -2.9 °F - -14.3 °F 58% 29.65 in 10.0 mi Calm Calm - N/A   Clear
7:35 PM -3.5 °F - -14.4 °F 59% 29.63 in 10.0 mi Calm Calm - N/A   Clear
7:55 PM -4.0 °F - -14.8 °F 60% 29.63 in 10.0 mi Calm Calm - N/A   Clear
8:15 PM -3.8 °F -12.2 °F -15.2 °F 58% 29.63 in 10.0 mi WSW 3.5 mph - N/A   Clear
9:15 PM -3.1 °F -11.4 °F -15.0 °F 57% 29.61 in 10.0 mi WSW 3.5 mph - N/A   Clear
9:35 PM -3.3 °F -11.6 °F -14.6 °F 58% 29.60 in 10.0 mi SW 3.5 mph - N/A   Mostly Cloudy
9:55 PM -3.1 °F - -14.3 °F 59% 29.59 in 10.0 mi Calm Calm - N/A   Mostly Cloudy
10:15 PM -2.7 °F -11.0 °F -14.1 °F 58% 29.58 in 10.0 mi SSE 3.5 mph - N/A   Mostly Cloudy
10:35 PM -2.7 °F - -13.7 °F 60% 29.57 in 10.0 mi Calm Calm - N/A   Overcast
10:55 PM -2.4 °F - -13.4 °F 60% 29.57 in 10.0 mi Calm Calm - N/A   Overcast
11:15 PM -2.7 °F -11.0 °F -13.4 °F 61% 29.56 in 10.0 mi South 3.5 mph - N/A   Overcast
11:35 PM -2.9 °F -13.3 °F -13.0 °F 62% 29.54 in 10.0 mi SSE 4.6 mph - N/A   Overcast
11:55 PM -2.6 °F -10.8 °F -13.0 °F 61% 29.52 in 10.0 mi South 3.5 mph - N/A   Mostly Cloudy